EDT,Max TemperatureF,Mean TemperatureF,Min TemperatureF,Max Dew PointF,MeanDew PointF,Min DewpointF,Max Humidity, Mean Humidity, Min Humidity, Max Sea Level PressureIn, Mean Sea Level PressureIn, Min Sea Level PressureIn, Max VisibilityMiles, Mean VisibilityMiles, Min VisibilityMiles, Max Wind SpeedMPH, Mean Wind SpeedMPH, Max Gust SpeedMPH,PrecipitationIn, CloudCover, Events, WindDirDegrees
2012-10-1,66,56,45,47,43,39,90,62,37,29.99,29.94,29.89,10,10,10,6,2,,0.00,0,,82
2012-10-2,69,61,53,53,50,45,90,68,49,29.95,29.90,29.85,10,10,7,12,4,22,0.00,6,Rain,47
2012-10-3,67,63,59,60,56,53,94,78,63,30.11,30.02,29.93,10,8,1,13,3,17,0.00,8,Rain,200
2012-10-4,76,66,55,55,51,46,84,61,33,30.11,30.08,30.02,10,10,10,14,7,22,0.00,2,Rain,217
2012-10-5,63,54,45,59,47,40,90,74,53,30.10,30.04,29.98,10,10,7,14,7,20,0.00,6,Rain,247
2012-10-6,50,45,40,43,36,30,92,69,49,30.13,30.03,29.95,10,9,5,16,7,23,0.00,6,,255
2012-10-7,50,45,40,38,34,27,83,66,41,30.16,30.12,30.10,10,10,10,12,4,16,0.00,7,Rain,271
2012-10-8,55,44,34,37,30,22,91,60,28,30.24,30.18,30.13,10,10,10,12,5,20,0.00,1,,222
2012-10-9,62,50,38,35,32,29,74,49,31,30.15,30.03,29.86,10,10,10,20,8,30,0.00,0,,206
2012-10-10,55,46,37,42,33,23,87,61,41,30.18,29.96,29.80,10,10,7,20,11,30,0.00,6,Rain,263
2012-10-11,62,48,33,38,29,26,85,55,25,30.20,30.13,30.03,10,10,10,22,8,31,0.00,1,,236
2012-10-12,52,44,37,36,31,23,77,61,32,30.46,30.37,30.21,10,10,10,13,6,18,0.00,2,Rain,338
2012-10-13,59,46,34,57,40,30,93,84,73,30.42,30.20,29.92,10,8,3,15,2,22,0.00,5,Rain,169
2012-10-14,68,64,60,62,59,52,93,82,64,29.91,29.71,29.45,10,8,2,25,11,34,0.00,7,Rain,201
2012-10-15,61,54,47,52,41,37,79,70,63,29.95,29.77,29.48,10,10,10,23,14,36,0.00,8,,279
2012-10-16,58,49,40,44,35,32,80,58,38,30.01,29.92,29.79,10,10,10,9,5,,0.00,2,Rain,223
2012-10-17,71,61,51,56,47,43,92,61,37,29.81,29.71,29.62,10,10,2,20,7,26,0.00,5,Rain,177
2012-10-18,61,56,52,56,43,29,93,64,32,29.70,29.57,29.44,10,9,4,22,8,31,0.00,5,Rain,181
2012-10-19,58,52,46,45,41,34,90,69,43,29.69,29.62,29.58,10,10,7,15,5,26,0.00,7,Rain,172
2012-10-20,55,50,45,45,43,39,92,79,54,29.92,29.73,29.61,10,9,5,15,6,21,0.00,7,Rain,250
2012-10-21,62,52,41,45,40,37,93,69,38,30.12,30.06,29.92,10,9,3,10,5,16,0.00,1,,241
2012-10-22,70,56,42,55,46,39,90,70,46,30.12,30.07,30.00,10,10,5,8,2,,0.00,2,Rain,184
2012-10-23,67,63,59,60,58,55,94,84,75,30.05,29.99,29.94,10,9,2,9,3,,0.00,7,Rain,223
2012-10-24,77,68,60,59,58,57,94,74,50,30.06,30.03,29.99,10,9,2,9,4,,0.00,3,Rain,193
2012-10-25,78,67,56,57,52,48,88,61,36,30.02,29.96,29.88,10,10,10,20,5,28,0.00,0,,186
2012-10-26,68,57,46,52,41,33,84,67,54,30.26,30.14,29.88,10,10,10,21,9,33,0.00,5,Rain,325
2012-10-27,53,47,41,36,32,29,74,60,40,30.23,30.20,30.15,10,10,10,14,9,28,0.00,3,,4
2012-10-28,47,44,40,33,29,26,70,57,46,30.22,30.17,30.12,10,10,10,22,12,32,0.00,6,,2
2012-10-29,44,41,38,36,32,28,85,69,54,30.11,29.97,29.69,10,10,7,28,18,41,0.00,8,Rain,353
2012-10-30,44,40,37,40,36,33,88,85,80,29.68,29.49,29.43,10,7,2,29,20,44,0.00,8,Rain-Snow,339
2012-10-31,43,40,37,38,35,33,87,82,76,29.66,29.57,29.48,10,10,7,22,14,33,0.00,8,Rain,308